Year,Month,Day,Hour,Minute,Value (Times are PST for temperature in C)
2017,05,25,00,00,7.90
2017,05,25,00,01,7.90
2017,05,25,00,02,7.90
2017,05,25,00,03,7.90
2017,05,25,00,04,7.80
2017,05,25,00,05,7.80
2017,05,25,00,06,7.80
2017,05,25,00,07,7.80
2017,05,25,00,08,7.80
2017,05,25,00,09,7.80
2017,05,25,00,10,7.80
2017,05,25,00,11,7.80
2017,05,25,00,12,7.80
2017,05,25,00,13,7.80
2017,05,25,00,14,7.80
2017,05,25,00,15,7.80
2017,05,25,00,16,7.80
2017,05,25,00,17,7.80
2017,05,25,00,18,7.80
2017,05,25,00,19,7.80
2017,05,25,00,20,7.80
2017,05,25,00,21,7.70
2017,05,25,00,22,7.70
2017,05,25,00,23,7.70
2017,05,25,00,24,7.70
2017,05,25,00,25,7.70
2017,05,25,00,26,7.70
2017,05,25,00,27,7.70
2017,05,25,00,28,7.70
2017,05,25,00,29,7.70
2017,05,25,00,30,7.70
2017,05,25,00,31,7.70
2017,05,25,00,32,7.60
2017,05,25,00,33,7.70
2017,05,25,00,34,7.60
2017,05,25,00,35,7.60
2017,05,25,00,36,7.60
2017,05,25,00,37,7.60
2017,05,25,00,38,7.60
2017,05,25,00,39,7.60
2017,05,25,00,40,7.60
2017,05,25,00,41,7.60
2017,05,25,00,42,7.60
2017,05,25,00,43,7.60
2017,05,25,00,44,7.60
2017,05,25,00,45,7.60
2017,05,25,00,46,7.60
2017,05,25,00,47,7.60
2017,05,25,00,48,7.60
2017,05,25,00,49,7.60
2017,05,25,00,50,7.60
2017,05,25,00,51,7.60
2017,05,25,00,52,7.60
2017,05,25,00,53,7.60
2017,05,25,00,54,7.60
2017,05,25,00,55,7.50
2017,05,25,00,56,7.50
2017,05,25,00,57,7.50
2017,05,25,00,58,7.50
2017,05,25,00,59,7.50
2017,05,25,01,00,7.40
2017,05,25,01,01,7.40
2017,05,25,01,02,7.40
2017,05,25,01,03,7.40
2017,05,25,01,04,7.40
2017,05,25,01,05,7.40
2017,05,25,01,06,7.40
2017,05,25,01,07,7.40
2017,05,25,01,08,7.40
2017,05,25,01,09,7.40
2017,05,25,01,10,7.40
2017,05,25,01,11,7.40
2017,05,25,01,12,7.40
2017,05,25,01,13,7.40
2017,05,25,01,14,7.40
2017,05,25,01,15,7.40
2017,05,25,01,16,7.30
2017,05,25,01,17,7.30
2017,05,25,01,18,7.30
2017,05,25,01,19,7.30
2017,05,25,01,20,7.30
2017,05,25,01,21,7.30
2017,05,25,01,22,7.30
2017,05,25,01,23,7.30
2017,05,25,01,24,7.30
2017,05,25,01,25,7.30
2017,05,25,01,26,7.30
2017,05,25,01,27,7.30
2017,05,25,01,28,7.30
2017,05,25,01,29,7.30
2017,05,25,01,30,7.30
2017,05,25,01,31,7.30
2017,05,25,01,32,7.30
2017,05,25,01,33,7.30
2017,05,25,01,34,7.30
2017,05,25,01,35,7.30
2017,05,25,01,36,7.30
2017,05,25,01,37,7.30
2017,05,25,01,38,7.30
2017,05,25,01,39,7.30
2017,05,25,01,40,7.30
2017,05,25,01,41,7.30
2017,05,25,01,42,7.30
2017,05,25,01,43,7.30
2017,05,25,01,44,7.30
2017,05,25,01,45,7.30
2017,05,25,01,46,7.30
2017,05,25,01,47,7.30
2017,05,25,01,48,7.20
2017,05,25,01,49,7.20
2017,05,25,01,50,7.20
2017,05,25,01,51,7.20
2017,05,25,01,52,7.20
2017,05,25,01,53,7.20
2017,05,25,01,54,7.20
2017,05,25,01,55,7.10
2017,05,25,01,56,7.10
2017,05,25,01,57,7.10
2017,05,25,01,58,7.10
2017,05,25,01,59,7.00
2017,05,25,02,00,7.10
2017,05,25,02,01,7.10
2017,05,25,02,02,7.10
2017,05,25,02,03,7.10
2017,05,25,02,04,7.10
2017,05,25,02,05,7.10
2017,05,25,02,06,7.10
2017,05,25,02,07,7.10
2017,05,25,02,08,7.10
2017,05,25,02,09,7.10
2017,05,25,02,10,7.10
2017,05,25,02,11,7.10
2017,05,25,02,12,7.10
2017,05,25,02,13,7.10
2017,05,25,02,14,7.10
2017,05,25,02,15,7.10
2017,05,25,02,16,7.10
2017,05,25,02,17,7.20
2017,05,25,02,18,7.20
2017,05,25,02,19,7.20
2017,05,25,02,20,7.20
2017,05,25,02,21,7.20
2017,05,25,02,22,7.20
2017,05,25,02,23,7.20
2017,05,25,02,24,7.20
2017,05,25,02,25,7.20
2017,05,25,02,26,7.20
2017,05,25,02,27,7.10
2017,05,25,02,28,7.10
2017,05,25,02,29,7.10
2017,05,25,02,30,7.10
2017,05,25,02,31,7.10
2017,05,25,02,32,7.10
2017,05,25,02,33,7.10
2017,05,25,02,34,7.10
2017,05,25,02,35,7.10
2017,05,25,02,36,7.10
2017,05,25,02,37,7.00
2017,05,25,02,38,7.00
2017,05,25,02,39,7.00
2017,05,25,02,40,7.00
2017,05,25,02,41,6.90
2017,05,25,02,42,6.90
2017,05,25,02,43,6.90
2017,05,25,02,44,6.90
2017,05,25,02,45,6.90
2017,05,25,02,46,6.90
2017,05,25,02,47,6.90
2017,05,25,02,48,6.90
2017,05,25,02,49,6.90
2017,05,25,02,50,6.90
2017,05,25,02,51,6.80
2017,05,25,02,52,6.80
2017,05,25,02,53,6.80
2017,05,25,02,54,6.80
2017,05,25,02,55,6.80
2017,05,25,02,56,6.80
2017,05,25,02,57,6.80
2017,05,25,02,58,6.80
2017,05,25,02,59,6.80
2017,05,25,03,00,6.80
2017,05,25,03,01,6.80
2017,05,25,03,02,6.80
2017,05,25,03,03,6.80
2017,05,25,03,04,6.80
2017,05,25,03,05,6.80
2017,05,25,03,06,6.80
2017,05,25,03,07,6.80
2017,05,25,03,08,6.80
2017,05,25,03,09,6.80
2017,05,25,03,10,6.70
2017,05,25,03,11,6.70
2017,05,25,03,12,6.70
2017,05,25,03,13,6.70
2017,05,25,03,14,6.70
2017,05,25,03,15,6.70
2017,05,25,03,16,6.70
2017,05,25,03,17,6.80
2017,05,25,03,18,6.80
2017,05,25,03,19,6.80
2017,05,25,03,20,6.80
2017,05,25,03,21,6.80
2017,05,25,03,22,6.80
2017,05,25,03,23,6.90
2017,05,25,03,24,6.90
2017,05,25,03,25,6.90
2017,05,25,03,26,6.90
2017,05,25,03,27,6.90
2017,05,25,03,28,6.80
2017,05,25,03,29,6.80
2017,05,25,03,30,6.80
2017,05,25,03,31,6.80
2017,05,25,03,32,6.80
2017,05,25,03,33,6.70
2017,05,25,03,34,6.70
2017,05,25,03,35,6.70
2017,05,25,03,36,6.70
2017,05,25,03,37,6.70
2017,05,25,03,38,6.70
2017,05,25,03,39,6.60
2017,05,25,03,40,6.60
2017,05,25,03,41,6.60
2017,05,25,03,42,6.60
2017,05,25,03,43,6.60
2017,05,25,03,44,6.60
2017,05,25,03,45,6.60
2017,05,25,03,46,6.60
2017,05,25,03,47,6.60
2017,05,25,03,48,6.60
2017,05,25,03,49,6.60
2017,05,25,03,50,6.60
2017,05,25,03,51,6.60
2017,05,25,03,52,6.70
2017,05,25,03,53,6.70
2017,05,25,03,54,6.70
2017,05,25,03,55,6.70
2017,05,25,03,56,6.70
2017,05,25,03,57,6.70
2017,05,25,03,58,6.70
2017,05,25,03,59,6.70
2017,05,25,04,00,6.70
2017,05,25,04,01,6.70
2017,05,25,04,02,6.70
2017,05,25,04,03,6.70
2017,05,25,04,04,6.70
2017,05,25,04,05,6.70
2017,05,25,04,06,6.70
2017,05,25,04,07,6.70
2017,05,25,04,08,6.70
2017,05,25,04,09,6.70
2017,05,25,04,10,6.60
2017,05,25,04,11,6.60
2017,05,25,04,12,6.60
2017,05,25,04,13,6.60
2017,05,25,04,14,6.50
2017,05,25,04,15,6.50
2017,05,25,04,16,6.50
2017,05,25,04,17,6.50
2017,05,25,04,18,6.50
2017,05,25,04,19,6.50
2017,05,25,04,20,6.60
2017,05,25,04,21,6.60
2017,05,25,04,22,6.60
2017,05,25,04,23,6.60
2017,05,25,04,24,6.60
2017,05,25,04,25,6.60
2017,05,25,04,26,6.50
2017,05,25,04,27,6.50
2017,05,25,04,28,6.50
2017,05,25,04,29,6.40
2017,05,25,04,30,6.40
2017,05,25,04,31,6.40
2017,05,25,04,32,6.40
2017,05,25,04,33,6.40
2017,05,25,04,34,6.40
2017,05,25,04,35,6.40
2017,05,25,04,36,6.40
2017,05,25,04,37,6.40
2017,05,25,04,38,6.40
2017,05,25,04,39,6.40
2017,05,25,04,40,6.40
2017,05,25,04,41,6.40
2017,05,25,04,42,6.40
2017,05,25,04,43,6.40
2017,05,25,04,44,6.40
2017,05,25,04,45,6.40
2017,05,25,04,46,6.30
2017,05,25,04,47,6.30
2017,05,25,04,48,6.30
2017,05,25,04,49,6.40
2017,05,25,04,50,6.40
2017,05,25,04,51,6.40
2017,05,25,04,52,6.40
2017,05,25,04,53,6.40
2017,05,25,04,54,6.40
2017,05,25,04,55,6.40
2017,05,25,04,56,6.40
2017,05,25,04,57,6.40
2017,05,25,04,58,6.30
2017,05,25,04,59,6.30
2017,05,25,05,00,6.30
2017,05,25,05,01,6.30
2017,05,25,05,02,6.30
2017,05,25,05,03,6.30
2017,05,25,05,04,6.30
2017,05,25,05,05,6.20
2017,05,25,05,06,6.20
2017,05,25,05,07,6.20
2017,05,25,05,08,6.20
2017,05,25,05,09,6.20
2017,05,25,05,10,6.20
2017,05,25,05,11,6.20
2017,05,25,05,12,6.20
2017,05,25,05,13,6.20
2017,05,25,05,14,6.20
2017,05,25,05,15,6.20
2017,05,25,05,16,6.10
2017,05,25,05,17,6.10
2017,05,25,05,18,6.10
2017,05,25,05,19,6.10
2017,05,25,05,20,6.10
2017,05,25,05,21,6.10
2017,05,25,05,22,6.10
2017,05,25,05,23,6.10
2017,05,25,05,24,6.10
2017,05,25,05,25,6.00
2017,05,25,05,26,6.00
2017,05,25,05,27,6.00
2017,05,25,05,28,5.90
2017,05,25,05,29,5.90
2017,05,25,05,30,5.90
2017,05,25,05,31,5.90
2017,05,25,05,32,5.90
2017,05,25,05,33,5.90
2017,05,25,05,34,5.90
2017,05,25,05,35,5.90
2017,05,25,05,36,6.00
2017,05,25,05,37,6.00
2017,05,25,05,38,6.00
2017,05,25,05,39,6.00
2017,05,25,05,40,6.00
2017,05,25,05,41,6.00
2017,05,25,05,42,6.00
2017,05,25,05,43,6.00
2017,05,25,05,44,5.90
2017,05,25,05,45,5.90
2017,05,25,05,46,5.90
2017,05,25,05,47,5.90
2017,05,25,05,48,5.90
2017,05,25,05,49,5.80
2017,05,25,05,50,5.90
2017,05,25,05,51,5.90
2017,05,25,05,52,5.90
2017,05,25,05,53,5.90
2017,05,25,05,54,5.90
2017,05,25,05,55,5.90
2017,05,25,05,56,5.90
2017,05,25,05,57,5.90
2017,05,25,05,58,5.90
2017,05,25,05,59,5.80
2017,05,25,06,00,5.80
2017,05,25,06,01,5.80
2017,05,25,06,02,5.80
2017,05,25,06,03,5.80
2017,05,25,06,04,5.80
2017,05,25,06,05,5.80
2017,05,25,06,06,5.80
2017,05,25,06,07,5.80
2017,05,25,06,08,5.80
2017,05,25,06,09,5.80
2017,05,25,06,10,5.80
2017,05,25,06,11,5.80
2017,05,25,06,12,5.80
2017,05,25,06,13,5.90
2017,05,25,06,14,5.90
2017,05,25,06,15,5.90
2017,05,25,06,16,5.90
2017,05,25,06,17,6.00
2017,05,25,06,18,6.00
2017,05,25,06,19,6.00
2017,05,25,06,20,6.10
2017,05,25,06,21,6.10
2017,05,25,06,22,6.10
2017,05,25,06,23,6.20
2017,05,25,06,24,6.20
2017,05,25,06,25,6.30
2017,05,25,06,26,6.30
2017,05,25,06,27,6.30
2017,05,25,06,28,6.40
2017,05,25,06,29,6.40
2017,05,25,06,30,6.40
2017,05,25,06,31,6.50
2017,05,25,06,32,6.50
2017,05,25,06,33,6.50
2017,05,25,06,34,6.60
2017,05,25,06,35,6.60
2017,05,25,06,36,6.60
2017,05,25,06,37,6.60
2017,05,25,06,38,6.60
2017,05,25,06,39,6.60
2017,05,25,06,40,6.70
2017,05,25,06,41,6.70
2017,05,25,06,42,6.70
2017,05,25,06,43,6.70
2017,05,25,06,44,6.70
2017,05,25,06,45,6.80
2017,05,25,06,46,6.80
2017,05,25,06,47,6.90
2017,05,25,06,48,7.00
2017,05,25,06,49,7.10
2017,05,25,06,50,7.20
2017,05,25,06,51,7.20
2017,05,25,06,52,7.30
2017,05,25,06,53,7.40
2017,05,25,06,54,7.50
2017,05,25,06,55,7.50
2017,05,25,06,56,7.60
2017,05,25,06,57,7.60
2017,05,25,06,58,7.70
2017,05,25,06,59,7.70
2017,05,25,07,00,7.80
2017,05,25,07,01,7.80
2017,05,25,07,02,7.80
2017,05,25,07,03,7.90
2017,05,25,07,04,7.90
2017,05,25,07,05,8.00
2017,05,25,07,06,8.20
2017,05,25,07,07,8.30
2017,05,25,07,08,8.40
2017,05,25,07,09,8.60
2017,05,25,07,10,8.70
2017,05,25,07,11,8.80
2017,05,25,07,12,8.90
2017,05,25,07,13,8.90
2017,05,25,07,14,9.00
2017,05,25,07,15,9.10
2017,05,25,07,16,9.20
2017,05,25,07,17,9.30
2017,05,25,07,18,9.30
2017,05,25,07,19,9.30
2017,05,25,07,20,9.30
2017,05,25,07,21,9.30
2017,05,25,07,22,9.40
2017,05,25,07,23,9.40
2017,05,25,07,24,9.50
2017,05,25,07,25,9.60
2017,05,25,07,26,9.60
2017,05,25,07,27,9.70
2017,05,25,07,28,9.80
2017,05,25,07,29,9.90
2017,05,25,07,30,10.00
2017,05,25,07,31,10.10
2017,05,25,07,32,10.30
2017,05,25,07,33,10.40
2017,05,25,07,34,10.50
2017,05,25,07,35,10.60
2017,05,25,07,36,10.70
2017,05,25,07,37,10.80
2017,05,25,07,38,10.90
2017,05,25,07,39,10.90
2017,05,25,07,40,11.00
2017,05,25,07,41,11.00
2017,05,25,07,42,11.10
2017,05,25,07,43,11.20
2017,05,25,07,44,11.20
2017,05,25,07,45,11.30
2017,05,25,07,46,11.40
2017,05,25,07,47,11.40
2017,05,25,07,48,11.50
2017,05,25,07,49,11.60
2017,05,25,07,50,11.70
2017,05,25,07,51,11.70
2017,05,25,07,52,11.80
2017,05,25,07,53,11.80
2017,05,25,07,54,11.90
2017,05,25,07,55,11.90
2017,05,25,07,56,11.90
2017,05,25,07,57,12.00
2017,05,25,07,58,12.00
2017,05,25,07,59,12.10
2017,05,25,08,00,12.10
2017,05,25,08,01,12.20
2017,05,25,08,02,12.20
2017,05,25,08,03,12.30
2017,05,25,08,04,12.30
2017,05,25,08,05,12.30
2017,05,25,08,06,12.40
2017,05,25,08,07,12.50
2017,05,25,08,08,12.60
2017,05,25,08,09,12.80
2017,05,25,08,10,12.80
2017,05,25,08,11,12.90
2017,05,25,08,12,12.90
2017,05,25,08,13,12.90
2017,05,25,08,14,12.90
2017,05,25,08,15,12.80
2017,05,25,08,16,12.80
2017,05,25,08,17,12.70
2017,05,25,08,18,12.70
2017,05,25,08,19,12.70
2017,05,25,08,20,12.70
2017,05,25,08,21,12.70
2017,05,25,08,22,12.70
2017,05,25,08,23,12.70
2017,05,25,08,24,12.70
2017,05,25,08,25,12.70
2017,05,25,08,26,12.80
2017,05,25,08,27,12.80
2017,05,25,08,28,12.80
2017,05,25,08,29,12.90
2017,05,25,08,30,13.00
2017,05,25,08,31,13.20
2017,05,25,08,32,13.30
2017,05,25,08,33,13.40
2017,05,25,08,34,13.40
2017,05,25,08,35,13.40
2017,05,25,08,36,13.50
2017,05,25,08,37,13.50
2017,05,25,08,38,13.60
2017,05,25,08,39,13.60
2017,05,25,08,40,13.70
2017,05,25,08,41,13.70
2017,05,25,08,42,13.70
2017,05,25,08,43,13.70
2017,05,25,08,44,13.70
2017,05,25,08,45,13.60
2017,05,25,08,46,13.60
2017,05,25,08,47,13.60
2017,05,25,08,48,13.60
2017,05,25,08,49,13.70
2017,05,25,08,50,13.70
2017,05,25,08,51,13.80
2017,05,25,08,52,13.90
2017,05,25,08,53,14.00
2017,05,25,08,54,14.10
2017,05,25,08,55,14.20
2017,05,25,08,56,14.30
2017,05,25,08,57,14.40
2017,05,25,08,58,14.50
2017,05,25,08,59,14.60
2017,05,25,09,00,14.60
2017,05,25,09,01,14.60
2017,05,25,09,02,14.60
2017,05,25,09,03,14.50
2017,05,25,09,04,14.50
2017,05,25,09,05,14.40
2017,05,25,09,06,14.40
2017,05,25,09,07,14.50
2017,05,25,09,08,14.50
2017,05,25,09,09,14.60
2017,05,25,09,10,14.60
2017,05,25,09,11,14.70
2017,05,25,09,12,14.70
2017,05,25,09,13,14.70
2017,05,25,09,14,14.70
2017,05,25,09,15,14.80
2017,05,25,09,16,14.80
2017,05,25,09,17,15.00
2017,05,25,09,18,15.00
2017,05,25,09,19,15.10
2017,05,25,09,20,15.20
2017,05,25,09,21,15.20
2017,05,25,09,22,15.10
2017,05,25,09,23,15.00
2017,05,25,09,24,15.00
2017,05,25,09,25,15.00
2017,05,25,09,26,14.90
2017,05,25,09,27,14.90
2017,05,25,09,28,14.90
2017,05,25,09,29,14.90
2017,05,25,09,30,15.00
2017,05,25,09,31,15.10
2017,05,25,09,32,15.10
2017,05,25,09,33,15.10
2017,05,25,09,34,15.20
2017,05,25,09,35,15.20
2017,05,25,09,36,15.30
2017,05,25,09,37,15.30
2017,05,25,09,38,15.40
2017,05,25,09,39,15.50
2017,05,25,09,40,15.60
2017,05,25,09,41,15.70
2017,05,25,09,42,15.70
2017,05,25,09,43,15.80
2017,05,25,09,44,15.80
2017,05,25,09,45,15.90
2017,05,25,09,46,15.90
2017,05,25,09,47,16.00
2017,05,25,09,48,16.00
2017,05,25,09,49,16.00
2017,05,25,09,50,16.10
2017,05,25,09,51,16.10
2017,05,25,09,52,16.20
2017,05,25,09,53,16.20
2017,05,25,09,54,16.20
2017,05,25,09,55,16.20
2017,05,25,09,56,16.20
2017,05,25,09,57,16.30
2017,05,25,09,58,16.30
2017,05,25,09,59,16.30
2017,05,25,10,00,16.30
2017,05,25,10,01,16.30
2017,05,25,10,02,16.30
2017,05,25,10,03,16.30
2017,05,25,10,04,16.40
2017,05,25,10,05,16.40
2017,05,25,10,06,16.30
2017,05,25,10,07,16.20
2017,05,25,10,08,16.20
2017,05,25,10,09,16.10
2017,05,25,10,10,16.10
2017,05,25,10,11,16.10
2017,05,25,10,12,16.10
2017,05,25,10,13,16.20
2017,05,25,10,14,16.30
2017,05,25,10,15,16.40
2017,05,25,10,16,16.40
2017,05,25,10,17,16.40
2017,05,25,10,18,16.40
2017,05,25,10,19,16.30
2017,05,25,10,20,16.30
2017,05,25,10,21,16.30
2017,05,25,10,22,16.30
2017,05,25,10,23,16.40
2017,05,25,10,24,16.40
2017,05,25,10,25,16.40
2017,05,25,10,26,16.30
2017,05,25,10,27,16.30
2017,05,25,10,28,16.30
2017,05,25,10,29,16.30
2017,05,25,10,30,16.40
2017,05,25,10,31,16.50
2017,05,25,10,32,16.40
2017,05,25,10,33,16.50
2017,05,25,10,34,16.50
2017,05,25,10,35,16.50
2017,05,25,10,36,16.50
2017,05,25,10,37,16.40
2017,05,25,10,38,16.40
2017,05,25,10,39,16.40
2017,05,25,10,40,16.40
2017,05,25,10,41,16.40
2017,05,25,10,42,16.50
2017,05,25,10,43,16.50
2017,05,25,10,44,16.60
2017,05,25,10,45,16.60
2017,05,25,10,46,16.50
2017,05,25,10,47,16.40
2017,05,25,10,48,16.30
2017,05,25,10,49,16.10
2017,05,25,10,50,16.00
2017,05,25,10,51,15.90
2017,05,25,10,52,15.90
2017,05,25,10,53,15.80
2017,05,25,10,54,15.80
2017,05,25,10,55,15.80
2017,05,25,10,56,15.80
2017,05,25,10,57,15.90
2017,05,25,10,58,15.80
2017,05,25,10,59,15.80
2017,05,25,11,00,15.80
2017,05,25,11,01,15.80
2017,05,25,11,02,15.80
2017,05,25,11,03,15.90
2017,05,25,11,04,15.90
2017,05,25,11,05,15.90
2017,05,25,11,06,15.90
2017,05,25,11,07,15.80
2017,05,25,11,08,15.80
2017,05,25,11,09,15.70
2017,05,25,11,10,15.70
2017,05,25,11,11,15.80
2017,05,25,11,12,15.80
2017,05,25,11,13,15.90
2017,05,25,11,14,16.00
2017,05,25,11,15,16.10
2017,05,25,11,16,16.10
2017,05,25,11,17,16.20
2017,05,25,11,18,16.20
2017,05,25,11,19,16.20
2017,05,25,11,20,16.30
2017,05,25,11,21,16.30
2017,05,25,11,22,16.20
2017,05,25,11,23,16.30
2017,05,25,11,24,16.40
2017,05,25,11,25,16.50
2017,05,25,11,26,16.60
2017,05,25,11,27,16.70
2017,05,25,11,28,16.70
2017,05,25,11,29,16.70
2017,05,25,11,30,16.60
2017,05,25,11,31,16.60
2017,05,25,11,32,16.50
2017,05,25,11,33,16.50
2017,05,25,11,34,16.60
2017,05,25,11,35,16.70
2017,05,25,11,36,16.70
2017,05,25,11,37,16.80
2017,05,25,11,38,16.90
2017,05,25,11,39,17.00
2017,05,25,11,40,17.00
2017,05,25,11,41,16.90
2017,05,25,11,42,16.80
2017,05,25,11,43,16.80
2017,05,25,11,44,16.80
2017,05,25,11,45,16.80
2017,05,25,11,46,16.80
2017,05,25,11,47,16.70
2017,05,25,11,48,16.70
2017,05,25,11,49,16.60
2017,05,25,11,50,16.60
2017,05,25,11,51,16.70
2017,05,25,11,52,16.70
2017,05,25,11,53,16.60
2017,05,25,11,54,16.50
2017,05,25,11,55,16.50
2017,05,25,11,56,16.50
2017,05,25,11,57,16.50
2017,05,25,11,58,16.40
2017,05,25,11,59,16.30
2017,05,25,12,00,16.20
2017,05,25,12,01,16.20
2017,05,25,12,02,16.10
2017,05,25,12,03,16.10
2017,05,25,12,04,16.10
2017,05,25,12,05,16.10
2017,05,25,12,06,16.20
2017,05,25,12,07,16.20
2017,05,25,12,08,16.30
2017,05,25,12,09,16.40
2017,05,25,12,10,16.40
2017,05,25,12,11,16.40
2017,05,25,12,12,16.40
2017,05,25,12,13,16.40
2017,05,25,12,14,16.40
2017,05,25,12,15,16.50
2017,05,25,12,16,16.50
2017,05,25,12,17,16.50
2017,05,25,12,18,16.40
2017,05,25,12,19,16.40
2017,05,25,12,20,16.50
2017,05,25,12,21,16.50
2017,05,25,12,22,16.50
2017,05,25,12,23,16.40
2017,05,25,12,24,16.40
2017,05,25,12,25,16.40
2017,05,25,12,26,16.40
2017,05,25,12,27,16.30
2017,05,25,12,28,16.40
2017,05,25,12,29,16.50
2017,05,25,12,30,16.60
2017,05,25,12,31,16.60
2017,05,25,12,32,16.60
2017,05,25,12,33,16.60
2017,05,25,12,34,16.70
2017,05,25,12,35,16.70
2017,05,25,12,36,16.70
2017,05,25,12,37,16.70
2017,05,25,12,38,16.70
2017,05,25,12,39,16.80
2017,05,25,12,40,16.90
2017,05,25,12,41,16.90
2017,05,25,12,42,16.90
2017,05,25,12,43,16.80
2017,05,25,12,44,16.80
2017,05,25,12,45,16.90
2017,05,25,12,46,16.80
2017,05,25,12,47,16.70
2017,05,25,12,48,16.70
2017,05,25,12,49,16.70
2017,05,25,12,50,16.70
2017,05,25,12,51,16.70
2017,05,25,12,52,16.60
2017,05,25,12,53,16.60
2017,05,25,12,54,16.60
2017,05,25,12,55,16.60
2017,05,25,12,56,16.50
2017,05,25,12,57,16.50
2017,05,25,12,58,16.50
2017,05,25,12,59,16.50
2017,05,25,13,00,16.50
2017,05,25,13,01,16.60
2017,05,25,13,02,16.60
2017,05,25,13,03,16.70
2017,05,25,13,04,16.80
2017,05,25,13,05,16.90
2017,05,25,13,06,16.90
2017,05,25,13,07,16.90
2017,05,25,13,08,16.80
2017,05,25,13,09,16.70
2017,05,25,13,10,16.70
2017,05,25,13,11,16.60
2017,05,25,13,12,16.60
2017,05,25,13,13,16.60
2017,05,25,13,14,16.70
2017,05,25,13,15,16.70
2017,05,25,13,16,16.70
2017,05,25,13,17,16.70
2017,05,25,13,18,16.70
2017,05,25,13,19,16.60
2017,05,25,13,20,16.60
2017,05,25,13,21,16.60
2017,05,25,13,22,16.60
2017,05,25,13,23,16.60
2017,05,25,13,24,16.50
2017,05,25,13,25,16.50
2017,05,25,13,26,16.50
2017,05,25,13,27,16.50
2017,05,25,13,28,16.60
2017,05,25,13,29,16.70
2017,05,25,13,30,16.60
2017,05,25,13,31,16.60
2017,05,25,13,32,16.60
2017,05,25,13,33,16.50
2017,05,25,13,34,16.50
2017,05,25,13,35,16.60
2017,05,25,13,36,16.60
2017,05,25,13,37,16.60
2017,05,25,13,38,16.60
2017,05,25,13,39,16.70
2017,05,25,13,40,16.70
2017,05,25,13,41,16.70
2017,05,25,13,42,16.70
2017,05,25,13,43,16.70
2017,05,25,13,44,16.60
2017,05,25,13,45,16.70
2017,05,25,13,46,16.70
2017,05,25,13,47,16.90
2017,05,25,13,48,17.00
2017,05,25,13,49,17.10
2017,05,25,13,50,17.10
2017,05,25,13,51,17.00
2017,05,25,13,52,17.00
2017,05,25,13,53,17.00
2017,05,25,13,54,17.10
2017,05,25,13,55,17.00
2017,05,25,13,56,17.00
2017,05,25,13,57,17.00
2017,05,25,13,58,17.00
2017,05,25,13,59,17.00
2017,05,25,14,00,17.00
2017,05,25,14,01,17.00
2017,05,25,14,02,17.00
2017,05,25,14,03,17.00
2017,05,25,14,04,17.10
2017,05,25,14,05,17.10
2017,05,25,14,06,17.20
2017,05,25,14,07,17.20
2017,05,25,14,08,17.10
2017,05,25,14,09,17.10
2017,05,25,14,10,17.00
2017,05,25,14,11,16.90
2017,05,25,14,12,16.90
2017,05,25,14,13,16.90
2017,05,25,14,14,16.80
2017,05,25,14,15,16.80
2017,05,25,14,16,16.80
2017,05,25,14,17,16.80
2017,05,25,14,18,16.90
2017,05,25,14,19,16.90
2017,05,25,14,20,17.00
2017,05,25,14,21,17.00
2017,05,25,14,22,17.10
2017,05,25,14,23,17.10
2017,05,25,14,24,17.20
2017,05,25,14,25,17.20
2017,05,25,14,26,17.20
2017,05,25,14,27,17.30
2017,05,25,14,28,17.30
2017,05,25,14,29,17.30
2017,05,25,14,30,17.30
2017,05,25,14,31,17.30
2017,05,25,14,32,17.40
2017,05,25,14,33,17.40
2017,05,25,14,34,17.40
2017,05,25,14,35,17.40
2017,05,25,14,36,17.50
2017,05,25,14,37,17.50
2017,05,25,14,38,17.50
2017,05,25,14,39,17.40
2017,05,25,14,40,17.40
2017,05,25,14,41,17.40
2017,05,25,14,42,17.40
2017,05,25,14,43,17.40
2017,05,25,14,44,17.40
2017,05,25,14,45,17.40
2017,05,25,14,46,17.40
2017,05,25,14,47,17.40
2017,05,25,14,48,17.40
2017,05,25,14,49,17.40
2017,05,25,14,50,17.50
2017,05,25,14,51,17.50
2017,05,25,14,52,17.60
2017,05,25,14,53,17.70
2017,05,25,14,54,17.80
2017,05,25,14,55,17.80
2017,05,25,14,56,18.00
2017,05,25,14,57,18.10
2017,05,25,14,58,18.20
2017,05,25,14,59,18.30
2017,05,25,15,00,18.40
2017,05,25,15,01,18.40
2017,05,25,15,02,18.50
2017,05,25,15,03,18.50
2017,05,25,15,04,18.60
2017,05,25,15,05,18.50
2017,05,25,15,06,18.50
2017,05,25,15,07,18.40
2017,05,25,15,08,18.30
2017,05,25,15,09,18.30
2017,05,25,15,10,18.30
2017,05,25,15,11,18.30
2017,05,25,15,12,18.20
2017,05,25,15,13,18.20
2017,05,25,15,14,18.20
2017,05,25,15,15,18.30
2017,05,25,15,16,18.30
2017,05,25,15,17,18.30
2017,05,25,15,18,18.30
2017,05,25,15,19,18.40
2017,05,25,15,20,18.40
2017,05,25,15,21,18.40
2017,05,25,15,22,18.50
2017,05,25,15,23,18.50
2017,05,25,15,24,18.60
2017,05,25,15,25,18.70
2017,05,25,15,26,18.70
2017,05,25,15,27,18.70
2017,05,25,15,28,18.70
2017,05,25,15,29,18.50
2017,05,25,15,30,18.40
2017,05,25,15,31,18.40
2017,05,25,15,32,18.40
2017,05,25,15,33,18.50
2017,05,25,15,34,18.50
2017,05,25,15,35,18.60
2017,05,25,15,36,18.60
2017,05,25,15,37,18.70
2017,05,25,15,38,18.80
2017,05,25,15,39,18.80
2017,05,25,15,40,18.70
2017,05,25,15,41,18.70
2017,05,25,15,42,18.60
2017,05,25,15,43,18.50
2017,05,25,15,44,18.50
2017,05,25,15,45,18.40
2017,05,25,15,46,18.40
2017,05,25,15,47,18.30
2017,05,25,15,48,18.30
2017,05,25,15,49,18.40
2017,05,25,15,50,18.40
2017,05,25,15,51,18.50
2017,05,25,15,52,18.60
2017,05,25,15,53,18.70
2017,05,25,15,54,18.70
2017,05,25,15,55,18.70
2017,05,25,15,56,18.70
2017,05,25,15,57,18.70
2017,05,25,15,58,18.70
2017,05,25,15,59,18.80
2017,05,25,16,00,18.70
2017,05,25,16,01,18.70
2017,05,25,16,02,18.70
2017,05,25,16,03,18.60
2017,05,25,16,04,18.60
2017,05,25,16,05,18.60
2017,05,25,16,06,18.60
2017,05,25,16,07,18.60
2017,05,25,16,08,18.60
2017,05,25,16,09,18.60
2017,05,25,16,10,18.60
2017,05,25,16,11,18.60
2017,05,25,16,12,18.50
2017,05,25,16,13,18.50
2017,05,25,16,14,18.50
2017,05,25,16,15,18.40
2017,05,25,16,16,18.30
2017,05,25,16,17,18.30
2017,05,25,16,18,18.20
2017,05,25,16,19,18.10
2017,05,25,16,20,18.00
2017,05,25,16,21,17.90
2017,05,25,16,22,17.90
2017,05,25,16,23,17.90
2017,05,25,16,24,17.90
2017,05,25,16,25,18.00
2017,05,25,16,26,18.00
2017,05,25,16,27,18.00
2017,05,25,16,28,18.10
2017,05,25,16,29,18.10
2017,05,25,16,30,18.20
2017,05,25,16,31,18.20
2017,05,25,16,32,18.20
2017,05,25,16,33,18.10
2017,05,25,16,34,18.10
2017,05,25,16,35,18.10
2017,05,25,16,36,18.10
2017,05,25,16,37,18.10
2017,05,25,16,38,18.10
2017,05,25,16,39,18.10
2017,05,25,16,40,18.10
2017,05,25,16,41,18.00
2017,05,25,16,42,18.00
2017,05,25,16,43,18.10
2017,05,25,16,44,18.10
2017,05,25,16,45,18.10
2017,05,25,16,46,18.10
2017,05,25,16,47,18.20
2017,05,25,16,48,18.20
2017,05,25,16,49,18.30
2017,05,25,16,50,18.40
2017,05,25,16,51,18.40
2017,05,25,16,52,18.40
2017,05,25,16,53,18.40
2017,05,25,16,54,18.40
2017,05,25,16,55,18.30
2017,05,25,16,56,18.30
2017,05,25,16,57,18.30
2017,05,25,16,58,18.30
2017,05,25,16,59,18.30
2017,05,25,17,00,18.30
2017,05,25,17,01,18.30
2017,05,25,17,02,18.30
2017,05,25,17,03,18.30
2017,05,25,17,04,18.30
2017,05,25,17,05,18.40
2017,05,25,17,06,18.40
2017,05,25,17,07,18.40
2017,05,25,17,08,18.40
2017,05,25,17,09,18.40
2017,05,25,17,10,18.40
2017,05,25,17,11,18.40
2017,05,25,17,12,18.40
2017,05,25,17,13,18.40
2017,05,25,17,14,18.40
2017,05,25,17,15,18.50
2017,05,25,17,16,18.50
2017,05,25,17,17,18.50
2017,05,25,17,18,18.60
2017,05,25,17,19,18.70
2017,05,25,17,20,18.70
2017,05,25,17,21,18.70
2017,05,25,17,22,18.70
2017,05,25,17,23,18.80
2017,05,25,17,24,18.80
2017,05,25,17,25,18.80
2017,05,25,17,26,18.80
2017,05,25,17,27,18.80
2017,05,25,17,28,18.90
2017,05,25,17,29,18.90
2017,05,25,17,30,18.90
2017,05,25,17,31,19.00
2017,05,25,17,32,19.00
2017,05,25,17,33,19.10
2017,05,25,17,34,19.10
2017,05,25,17,35,19.10
2017,05,25,17,36,19.20
2017,05,25,17,37,19.20
2017,05,25,17,38,19.20
2017,05,25,17,39,19.20